Weather History for New Iberia, LA

Change the Weather History Date:

Tuesday, February 4, 2014

  Actual Average Record
Temperature  
Mean Temperature 58 °F 54 °F  
Max Temperature 71 °F 64 °F 83 °F (1957)
Min Temperature 44 °F 44 °F 19 °F (1996)
Degree Days  
Heating Degree Days 7 12  
Month to date heating degree days 36 48  
Since 1 July heating degree days 1242 985  
Cooling Degree Days 0 0  
Month to date cooling degree days 0 0  
Year to date cooling degree days 0 12  
Growing Degree Days 8 (Base 50)    
Moisture  
Dew Point 55 °F    
Average Humidity 93    
Maximum Humidity 100    
Minimum Humidity 86    
Precipitation  
Precipitation 1.60 in 0.12 in 4.10 in (1992)
Month to date precipitation 1.78 0.50  
Year to date precipitation 4.13 5.72  
Sea Level Pressure  
Sea Level Pressure 29.91 in    
Wind  
Wind Speed 12 mph (SE)    
Max Wind Speed 28 mph    
Max Gust Speed 36 mph    
Visibility 3 miles    
Events Fog , Rain , Thunderstorm    
T = Trace of Precipitation, MM = Missing Value Source: NWS Daily Summary

Daily Weather History Graph

Daily Weather History Graph

Search for Another Location

Airport:

Trip Planner

Search our weather history database for the weather conditions in past years. The results will help you decide how hot, cold, wet, or windy it might be!

Date:

Astronomy

Feb. 04, 2014 Rise Set
Actual Time 6:55 AM CST 5:47 PM CST
Civil Twilight 6:31 AM CST 6:12 PM CST
Nautical Twilight 6:02 AM CST 6:40 PM CST
Astronomical Twilight 5:34 AM CST 7:08 PM CST
Moon 10:00 AM CST (2/4) 11:12 PM CST (2/4)
Length of Visible Light 11h 41m
Length of Day
10h 51m
Waxing Crescent, 29% of the Moon is Illuminated
Feb 4
Waxing Crescent
Feb 6
First Quarter
Feb 14
Full
Feb 22
Last Quarter
Mar 1
New

Hourly Weather History & Observations

Time (CST) Temp. Windchill Dew Point Humidity Pressure Visibility Wind Dir Wind Speed Gust Speed Precip Events Conditions
12:50 AM 44.6 °F 39.7 °F 41.0 °F 87% 30.06 in 4.0 mi East 9.2 mph - N/A   Overcast
12:53 AM 44.1 °F 39.5 °F 42.1 °F 93% 30.06 in 4.0 mi East 8.1 mph - N/A   Overcast
1:05 AM 44.1 °F 38.6 °F 41.0 °F 89% 30.06 in 2.5 mi East 10.4 mph - N/A   Overcast
1:53 AM 44.1 °F 39.5 °F 42.1 °F 93% 30.05 in 2.5 mi ENE 8.1 mph - N/A   Overcast
2:53 AM 44.1 °F 40.1 °F 43.0 °F 96% 30.03 in 2.0 mi East 6.9 mph - N/A   Overcast
3:53 AM 45.0 °F 39.7 °F 43.0 °F 93% 30.00 in 1.8 mi East 10.4 mph - N/A   Overcast
4:37 AM 45.0 °F 40.1 °F 43.0 °F 93% 30.00 in 2.0 mi East 9.2 mph - N/A   Overcast
4:45 AM 45.0 °F 40.6 °F 43.0 °F 93% 29.99 in 1.8 mi East 8.1 mph - N/A   Overcast
4:53 AM 45.0 °F 40.6 °F 43.0 °F 93% 29.99 in 1.5 mi East 8.1 mph - N/A   Overcast
5:23 AM 46.0 °F 41.4 °F 44.1 °F 93% 30.00 in 0.8 mi ENE 9.2 mph - 0.00 in Rain Light Rain
5:37 AM 46.0 °F 40.6 °F 44.1 °F 93% 29.99 in 1.0 mi East 11.5 mph - 0.00 in   Overcast
5:53 AM 46.0 °F 41.0 °F 44.1 °F 93% 29.98 in 1.2 mi ENE 10.4 mph - 0.00 in   Overcast
6:53 AM 46.9 °F - 45.0 °F 93% 29.98 in 2.0 mi East 9.2 mph - 0.00 in   Overcast
7:02 AM 46.9 °F - 45.0 °F 93% 29.98 in 1.8 mi East 10.4 mph - N/A   Overcast
7:53 AM 48.0 °F - 46.0 °F 93% 29.98 in 1.5 mi East 11.5 mph - N/A   Overcast
8:53 AM 50.0 °F - 48.0 °F 93% 29.99 in 1.5 mi East 11.5 mph - 0.00 in   Overcast
9:11 AM 50.0 °F - 48.0 °F 93% 29.98 in 2.0 mi East 11.5 mph - N/A   Overcast
9:30 AM 51.1 °F - 48.9 °F 92% 29.98 in 1.8 mi East 10.4 mph - N/A   Overcast
9:41 AM 51.1 °F - 50.0 °F 96% 29.98 in 2.5 mi East 9.2 mph - N/A   Overcast
9:53 AM 52.0 °F - 50.0 °F 93% 29.97 in 2.5 mi East 12.7 mph - 0.00 in Rain Light Rain
10:32 AM 54.0 °F - 52.0 °F 93% 29.96 in 3.0 mi ESE 17.3 mph - 0.00 in   Overcast
10:45 AM 54.0 °F - 52.0 °F 93% 29.96 in 1.8 mi ESE 16.1 mph - 0.00 in   Overcast
10:53 AM 54.0 °F - 52.0 °F 93% 29.96 in 2.0 mi ESE 12.7 mph - 0.00 in   Overcast
11:07 AM 54.0 °F - 52.0 °F 93% 29.96 in 1.8 mi ESE 11.5 mph - N/A   Overcast
11:25 AM 54.0 °F - 53.1 °F 97% 29.95 in 2.0 mi ESE 11.5 mph - 0.00 in   Overcast
11:53 AM 55.9 °F - 55.0 °F 97% 29.94 in 3.0 mi ESE 12.7 mph - 0.00 in   Overcast
12:15 PM 57.0 °F - 55.0 °F 93% 29.91 in 1.0 mi ESE 12.7 mph - N/A   Overcast
12:53 PM 57.9 °F - 57.0 °F 97% 29.88 in 1.0 mi ESE 10.4 mph - N/A   Overcast
1:53 PM 62.1 °F - 60.1 °F 93% 29.84 in 1.0 mi SSE 12.7 mph - N/A   Overcast
2:16 PM 66.0 °F - 63.0 °F 90% 29.83 in 3.0 mi SE 12.7 mph - N/A   Overcast
2:24 PM 68.0 °F - 64.9 °F 90% 29.83 in 3.0 mi SSE 16.1 mph - N/A   Overcast
2:53 PM 71.1 °F - 66.9 °F 87% 29.81 in 3.0 mi SSE 18.4 mph 29.9 mph 0.00 in Rain Light Rain
3:19 PM 69.1 °F - 66.0 °F 90% 29.79 in 5.0 mi SSE 20.7 mph 24.2 mph 0.00 in Thunderstorm Overcast
3:31 PM 69.1 °F - 66.0 °F 90% 29.78 in 3.0 mi SSE 15.0 mph 25.3 mph 0.02 in Rain , Thunderstorm Thunderstorms and Rain
3:53 PM 69.1 °F - 66.9 °F 93% 29.77 in 2.5 mi SSE 17.3 mph - 0.13 in Rain , Thunderstorm Heavy Thunderstorms and Rain
3:59 PM 69.1 °F - 66.9 °F 93% 29.78 in 1.8 mi South 17.3 mph - 0.08 in Rain , Thunderstorm Heavy Thunderstorms and Rain
4:11 PM 70.0 °F - 68.0 °F 93% 29.78 in 0.2 mi South 16.1 mph 27.6 mph 0.57 in Fog , Rain , Thunderstorm Heavy Thunderstorms and Rain
4:17 PM 70.0 °F - 68.0 °F 93% 29.78 in 0.5 mi South 20.7 mph 32.2 mph 0.71 in Fog , Rain , Thunderstorm Heavy Thunderstorms and Rain
4:25 PM 68.0 °F - 66.0 °F 93% 29.81 in 0.2 mi SW 18.4 mph 35.7 mph 1.05 in Fog , Rain , Thunderstorm Heavy Rain
4:31 PM 66.9 °F - 64.9 °F 93% 29.80 in 0.5 mi SW 12.7 mph 25.3 mph 1.18 in Fog , Rain , Thunderstorm Heavy Rain
4:35 PM 66.0 °F - 64.0 °F 93% 29.81 in 0.8 mi SW 11.5 mph - 1.18 in Rain Rain
4:42 PM 66.0 °F - 64.0 °F 93% 29.81 in 1.2 mi SW 11.5 mph - 1.25 in Rain Heavy Rain
4:50 PM 66.2 °F - 64.4 °F 94% 29.82 in 3.0 mi SW 13.8 mph - 1.26 in Rain Rain
4:53 PM 66.9 °F - 64.0 °F 90% 29.83 in 4.0 mi SW 15.0 mph - 1.27 in Rain Rain
4:58 PM 66.9 °F - 64.0 °F 90% 29.83 in 2.0 mi SW 13.8 mph - 0.03 in Rain Heavy Rain
5:02 PM 66.9 °F - 64.9 °F 93% 29.82 in 1.8 mi SW 15.0 mph - 0.05 in Rain Rain
5:05 PM 66.9 °F - 64.9 °F 93% 29.83 in 2.0 mi SW 18.4 mph - 0.06 in Rain Heavy Rain
5:13 PM 66.9 °F - 64.9 °F 93% 29.83 in 1.2 mi SW 15.0 mph - 0.13 in Rain Heavy Rain
5:22 PM 66.9 °F - 64.9 °F 93% 29.84 in 3.0 mi SW 18.4 mph 28.8 mph 0.15 in Rain Rain
5:31 PM 66.9 °F - 64.9 °F 93% 29.84 in 2.0 mi SSW 16.1 mph 25.3 mph 0.17 in Rain Rain
5:41 PM 66.0 °F - 64.0 °F 93% 29.85 in 6.0 mi SW 16.1 mph 25.3 mph 0.18 in Rain Light Rain
5:53 PM 66.0 °F - 64.0 °F 93% 29.86 in 6.0 mi SW 12.7 mph - 0.19 in Rain Light Rain
6:53 PM 63.0 °F - 61.0 °F 93% 29.88 in 10.0 mi NW 10.4 mph - 0.01 in   Overcast
7:18 PM 61.0 °F - 59.0 °F 93% 29.88 in 10.0 mi NW 11.5 mph - N/A   Overcast
7:33 PM 60.1 °F - 57.9 °F 93% 29.91 in 10.0 mi NW 15.0 mph - N/A   Overcast
7:53 PM 57.0 °F - 54.0 °F 89% 29.93 in 10.0 mi NNW 11.5 mph - 0.00 in   Overcast
8:53 PM 52.0 °F - 50.0 °F 93% 29.96 in 10.0 mi NNW 10.4 mph - N/A   Overcast
9:19 PM 50.0 °F - 46.9 °F 89% 29.97 in 10.0 mi NNW 10.4 mph - N/A   Scattered Clouds
9:53 PM 48.9 °F - 45.0 °F 86% 30.00 in 10.0 mi NNW 8.1 mph - N/A   Mostly Cloudy
10:53 PM 46.9 °F - 43.0 °F 86% 30.02 in 10.0 mi NNW 13.8 mph - N/A   Clear
11:53 PM 46.0 °F 39.6 °F 42.1 °F 86% 30.06 in 10.0 mi NNW 15.0 mph - N/A   Partly Cloudy